Total_Precipitation_Accumulation
0.42 0.42 0.39 0.37 0.35 0.33 0.32 0.32 0.29 0.27 0.24 0.22 0.20 0.17 0.16 0.15 0.15 0.16 0.17 0.17 0.16 0.16 0.16 0.16 0.16 0.17 0.17 0.16 0.17 0.18 0.19 0.23 0.28 0.19 0.12 0.11 0.14 0.18 0.20 0.23 0.22 0.20 0.18
0.34 0.30 0.28 0.25 0.24 0.22 0.21 0.20 0.18 0.17 0.16 0.16 0.16 0.15 0.13 0.13 0.14 0.14 0.14 0.14 0.14 0.14 0.14 0.13 0.13 0.13 0.16 0.15 0.15 0.15 0.16 0.21 0.30 0.28 0.18 0.14 0.14 0.16 0.20 0.22 0.16 0.14 0.16
0.32 0.30 0.28 0.24 0.21 0.20 0.18 0.16 0.16 0.15 0.14 0.13 0.11 0.11 0.10 0.09 0.09 0.09 0.10 0.10 0.10 0.10 0.10 0.09 0.09 0.10 0.11 0.12 0.13 0.14 0.16 0.19 0.26 0.29 0.20 0.16 0.13 0.12 0.19 0.22 0.22 0.27 0.16
0.30 0.30 0.30 0.29 0.24 0.21 0.19 0.17 0.13 0.11 0.10 0.08 0.07 0.07 0.06 0.06 0.05 0.05 0.04 0.04 0.04 0.04 0.04 0.05 0.06 0.07 0.11 0.14 0.14 0.16 0.20 0.23 0.24 0.26 0.22 0.17 0.15 0.16 0.28 0.37 0.33 0.29 0.22
0.28 0.28 0.27 0.27 0.24 0.20 0.17 0.15 0.11 0.09 0.07 0.06 0.05 0.04 0.04 0.03 0.02 0.01 0.01 0.02 0.02 0.03 0.03 0.04 0.05 0.07 0.13 0.15 0.16 0.19 0.24 0.28 0.29 0.32 0.30 0.25 0.22 0.29 0.39 0.41 0.37 0.28 0.22
0.30 0.30 0.26 0.22 0.19 0.17 0.15 0.12 0.10 0.08 0.07 0.06 0.05 0.04 0.03 0.02 0.02 0.01 0.01 0.02 0.03 0.05 0.06 0.07 0.05 0.05 0.07 0.09 0.11 0.15 0.22 0.29 0.35 0.40 0.38 0.35 0.31 0.39 0.48 0.49 0.50 0.45 0.35
0.35 0.32 0.29 0.25 0.19 0.15 0.11 0.10 0.09 0.09 0.07 0.06 0.05 0.04 0.05 0.03 0.01 0.01 0.00 0.02 0.05 0.08 0.10 0.11 0.08 0.08 0.12 0.15 0.12 0.10 0.14 0.21 0.34 0.48 0.51 0.44 0.43 0.49 0.59 0.60 0.56 0.54 0.46
0.36 0.31 0.26 0.23 0.19 0.15 0.11 0.09 0.08 0.08 0.08 0.08 0.07 0.06 0.08 0.04 0.00 0.00 0.00 0.02 0.06 0.09 0.10 0.11 0.15 0.19 0.15 0.10 0.08 0.12 0.23 0.35 0.40 0.43 0.50 0.47 0.46 0.50 0.61 0.63 0.58 0.53 0.47
0.32 0.24 0.20 0.18 0.16 0.12 0.10 0.09 0.08 0.08 0.09 0.08 0.07 0.08 0.11 0.08 0.01 0.00 0.00 0.03 0.06 0.07 0.07 0.09 0.12 0.17 0.13 0.11 0.12 0.21 0.30 0.40 0.34 0.43 0.49 0.55 0.60 0.60 0.55 0.55 0.65 0.68 0.63
0.19 0.14 0.13 0.13 0.11 0.09 0.09 0.09 0.09 0.09 0.10 0.08 0.08 0.09 0.12 0.12 0.03 0.00 0.01 0.04 0.07 0.08 0.11 0.16 0.13 0.10 0.11 0.12 0.13 0.24 0.36 0.41 0.52 0.70 0.84 0.89 0.84 0.76 0.63 0.62 0.74 0.80 0.79
0.11 0.10 0.11 0.11 0.10 0.09 0.09 0.11 0.11 0.12 0.14 0.14 0.13 0.13 0.13 0.08 0.03 0.01 0.01 0.04 0.07 0.10 0.16 0.25 0.25 0.14 0.14 0.12 0.14 0.26 0.40 0.47 0.71 1.01 1.06 0.95 0.81 0.71 0.64 0.62 0.65 0.72 0.77
0.11 0.11 0.11 0.09 0.06 0.05 0.10 0.12 0.12 0.15 0.18 0.17 0.16 0.15 0.14 0.12 0.05 0.02 0.01 0.02 0.04 0.12 0.25 0.27 0.25 0.21 0.18 0.17 0.23 0.37 0.47 0.65 0.91 1.10 1.02 0.84 0.66 0.56 0.50 0.46 0.49 0.54 0.61
0.16 0.16 0.12 0.09 0.06 0.05 0.08 0.11 0.13 0.14 0.14 0.12 0.12 0.12 0.12 0.14 0.10 0.02 0.02 0.02 0.04 0.11 0.23 0.26 0.26 0.25 0.28 0.41 0.48 0.55 0.66 0.83 0.99 0.97 0.84 0.73 0.61 0.51 0.46 0.44 0.43 0.47 0.48
0.22 0.18 0.15 0.14 0.09 0.06 0.07 0.06 0.09 0.10 0.10 0.10 0.11 0.10 0.12 0.13 0.10 0.06 0.06 0.07 0.10 0.15 0.23 0.34 0.45 0.49 0.53 0.62 0.70 0.78 0.84 0.91 0.86 0.76 0.67 0.62 0.54 0.48 0.46 0.41 0.42 0.44 0.47
0.19 0.16 0.13 0.09 0.09 0.11 0.09 0.04 0.03 0.04 0.02 0.04 0.07 0.07 0.11 0.11 0.07 0.08 0.09 0.11 0.16 0.20 0.25 0.40 0.59 0.65 0.69 0.74 0.74 0.78 0.80 0.76 0.75 0.70 0.63 0.56 0.50 0.46 0.45 0.42 0.42 0.41 0.44
0.14 0.13 0.10 0.07 0.07 0.09 0.12 0.11 0.03 0.01 0.01 0.01 0.03 0.04 0.05 0.08 0.07 0.06 0.09 0.13 0.18 0.25 0.31 0.50 0.66 0.70 0.71 0.72 0.68 0.68 0.69 0.65 0.62 0.60 0.59 0.54 0.50 0.47 0.45 0.42 0.40 0.40 0.43
0.09 0.09 0.07 0.07 0.08 0.10 0.13 0.20 0.23 0.12 0.03 0.02 0.02 0.04 0.05 0.07 0.07 0.06 0.08 0.13 0.17 0.24 0.32 0.52 0.69 0.79 0.79 0.72 0.65 0.62 0.67 0.68 0.64 0.61 0.56 0.53 0.47 0.42 0.40 0.39 0.36 0.35 0.37
0.05 0.05 0.05 0.08 0.07 0.07 0.08 0.12 0.21 0.26 0.23 0.16 0.08 0.05 0.06 0.08 0.10 0.10 0.11 0.15 0.21 0.26 0.37 0.52 0.64 0.68 0.70 0.70 0.64 0.61 0.65 0.67 0.64 0.57 0.51 0.48 0.42 0.38 0.36 0.37 0.34 0.27 0.27
0.03 0.06 0.05 0.04 0.04 0.05 0.06 0.07 0.11 0.16 0.21 0.22 0.19 0.12 0.09 0.11 0.14 0.16 0.16 0.19 0.25 0.29 0.36 0.45 0.53 0.54 0.51 0.52 0.51 0.51 0.55 0.59 0.54 0.45 0.42 0.42 0.38 0.33 0.33 0.33 0.28 0.19 0.19
0.03 0.02 0.02 0.02 0.03 0.03 0.04 0.06 0.07 0.11 0.16 0.21 0.19 0.15 0.14 0.21 0.28 0.27 0.20 0.18 0.18 0.22 0.29 0.37 0.43 0.41 0.38 0.37 0.34 0.33 0.36 0.39 0.37 0.34 0.32 0.31 0.31 0.30 0.28 0.25 0.22 0.19 0.18
0.02 0.02 0.01 0.01 0.03 0.03 0.02 0.03 0.03 0.06 0.11 0.15 0.13 0.10 0.15 0.22 0.30 0.31 0.29 0.26 0.24 0.23 0.24 0.26 0.30 0.33 0.32 0.29 0.25 0.22 0.23 0.24 0.24 0.25 0.26 0.26 0.26 0.25 0.20 0.17 0.13 0.10 0.10
0.01 0.01 0.01 0.02 0.02 0.02 0.01 0.01 0.01 0.03 0.07 0.10 0.11 0.10 0.14 0.18 0.22 0.24 0.29 0.33 0.32 0.29 0.25 0.23 0.23 0.26 0.29 0.28 0.22 0.18 0.17 0.18 0.20 0.23 0.24 0.24 0.22 0.18 0.14 0.11 0.08 0.06 0.06
0.00 0.00 0.00 0.01 0.00 0.00 0.00 0.00 0.01 0.01 0.04 0.06 0.08 0.10 0.12 0.16 0.19 0.21 0.25 0.30 0.33 0.31 0.26 0.22 0.22 0.25 0.27 0.27 0.23 0.17 0.14 0.14 0.16 0.18 0.23 0.23 0.19 0.15 0.11 0.08 0.05 0.04 0.03
0.00 0.00 0.00 0.00 0.00 0.00 0.00 0.00 0.00 0.00 0.01 0.02 0.05 0.07 0.10 0.14 0.15 0.17 0.21 0.25 0.29 0.30 0.29 0.27 0.26 0.26 0.25 0.24 0.21 0.13 0.10 0.11 0.12 0.14 0.18 0.20 0.17 0.13 0.08 0.06 0.04 0.03 0.02
0.00 0.00 0.00 0.00 0.00 0.00 0.00 0.00 0.00 0.00 0.01 0.01 0.02 0.03 0.05 0.07 0.10 0.11 0.15 0.19 0.22 0.25 0.25 0.24 0.24 0.22 0.20 0.17 0.14 0.10 0.09 0.11 0.12 0.12 0.14 0.15 0.12 0.10 0.08 0.06 0.04 0.03 0.03
0.00 0.00 0.00 0.00 0.00 0.00 0.00 0.01 0.01 0.01 0.01 0.01 0.01 0.02 0.02 0.03 0.05 0.07 0.08 0.09 0.12 0.16 0.19 0.20 0.20 0.17 0.12 0.08 0.07 0.07 0.07 0.05 0.05 0.06 0.10 0.13 0.11 0.09 0.08 0.07 0.04 0.03 0.02